sat.trackr.live / text

‹ back to catalog

STARLINK-5866

NORAD 57233 · 2023-094R

PAYLOAD ACTIVE UNKNOWN

§ Identity

Operator
Country
US
Launch date
2023-07-07
Launch site
AFWTR
Launch vehicle
Mass (kg)
RCS (m²)

Purposes: comms

External: N2YO · Heavens-Above · Gunter

§ Orbital elements

Epoch: 2026-05-25T04:20:36.830112Z

Period
94.27 min
Inclination
43.0033°
Eccentricity
0.0001062
Mean motion
15.27576987 rev/d
Perigee alt
482.3 km
Apogee alt
483.8 km
Semi-major
6,861.2 km
B*
1.8315e-5
RAAN
318.7551°
Arg perigee
267.9724°
Mean anomaly
92.1006°
Rev number
15,881

§ Raw data

STARLINK-58661 57233U 23094R   26145.18098183  .00000242  00000+0  18315-4 0  99932 57233  43.0033 318.7551 0001062 267.9724  92.1006 15.27576987158819

JSON: /api/v1/satellites/57233 · /tle

For live sub-satellite position, see the globe view (requires WebGL).

§ Visibility from observer

Set your observer location to see the next 7 days of passes ≥ 10°. The values pass through the URL so the page stays shareable.

No JS? Fill the form by hand. The geolocation button needs JavaScript.